ISS DEB (44304 NORAD) Tracking and Keplerian Element Data

This shows tracking and keplerian element data for the satellite.

Feedback or suggestion? Click here.




ElementValue
Catalog44304
NameISS DEB
Epoch Orbit6245
Epoch Day185.86776208
Epoch Year2020
RAAN247.3585
Inclination51.6383
Eccentricity0.000508
Argument of Perigee12.6525
Mean Anonmoly347.4595
Mean Motion15.620227
Decay Rate0.00011021
L11 44304U 98067QB 20185.86776208 .00011021 00000-0 12943-3 0 9992
L22 44304 51.6383 247.3585 0005080 12.6525 347.4595 15.62022700 62450

Live tracking and technical data element details for ISS DEB (NORAD 44304). ISS DEB can be tracked NOW for your location showing map with azimuth and elevation plus other details from your city location.

Track the satellite on the map from your city or location and see movement details for azimuth, elevation, latitude, longitude, range, height, and movement on the map or in text.







IsCatalogInMostPopularTable: catalog: 44304, numindb: 530
Update: records affected: 1



GetName: 44304 ISS DEB

Hit Count: updated at: Sun, 05 Jul 2020 17:06:08 GMT